This is the latest recevied weather packets stored in our database for station/object N7NIP. If no packets are shown the sender has not sent any weather packets the latest 10 day(s).
| Time | Temp. | Humidity | Pressure | Rain* | Wind** | Luminosity | Snow |
|---|---|---|---|---|---|---|---|
| 1777748711 | 18.33° C | 69% | 1030.5 hPa | 0 mm | - | 301 W/m² | - |
| 1777748408 | 18.89° C | 68% | 1030.5 hPa | 0 mm | - | 565 W/m² | - |
| 1777748103 | 18.33° C | 74% | 1030.6 hPa | 0 mm | - | 911 W/m² | - |
| 1777747800 | 17.78° C | 70% | 1030.6 hPa | 0 mm | - | 429 W/m² | - |
| 1777747495 | 17.78° C | 70% | 1030.8 hPa | 0 mm | - | 728 W/m² | - |
| 1777747192 | 17.78° C | 70% | 1030.7 hPa | 0 mm | - | 759 W/m² | - |
| 1777746889 | 16.67° C | 74% | 1030.7 hPa | 0 mm | - | 670 W/m² | - |
| 1777746584 | 16.11° C | 75% | 1030.8 hPa | 0 mm | - | 370 W/m² | - |
| 1777746280 | 16.11° C | 73% | 1030.9 hPa | 0 mm | - | 631 W/m² | - |
| 1777745976 | 16.67° C | 73% | 1031.1 hPa | 0 mm | - | 663 W/m² | - |
| 1777745674 | 16.11° C | 74% | 1031.1 hPa | 0 mm | - | 634 W/m² | - |
| 1777745373 | 16.11° C | 73% | 1031.1 hPa | 0 mm | - | 631 W/m² | - |
| 1777745070 | 16.11° C | 77% | 1030.9 hPa | 0 mm | - | 606 W/m² | - |
| 1777744766 | 16.11° C | 76% | 1031.1 hPa | 0 mm | - | 556 W/m² | - |
| 1777744460 | 16.11° C | 75% | 1031.3 hPa | 0 mm | - | 626 W/m² | - |
| 1777744157 | 16.67° C | 76% | 1031.3 hPa | 0 mm | - | 646 W/m² | - |
| 1777743854 | 15.56° C | 76% | 1031.1 hPa | 0 mm | - | 661 W/m² | - |
| 1777743550 | 15° C | 78% | 1031.4 hPa | 0 mm | - | 689 W/m² | - |
| 1777743247 | 15° C | 77% | 1031.6 hPa | 0 mm | - | 662 W/m² | - |
| 1777742946 | 15° C | 77% | 1031.5 hPa | 0 mm | - | 597 W/m² | - |
| 1777742642 | 14.44° C | 80% | 1031.5 hPa | 0 mm | - | 463 W/m² | - |
| 1777742338 | 13.89° C | 81% | 1031.6 hPa | 0 mm | - | 422 W/m² | - |
| 1777742035 | 13.89° C | 83% | 1031.5 hPa | 0 mm | - | 394 W/m² | - |
| 1777741732 | 13.33° C | 83% | 1031.5 hPa | 0 mm | - | 282 W/m² | - |
| 1777741429 | 13.33° C | 85% | 1031.4 hPa | 0 mm | - | 293 W/m² | - |
* Rain latest hour (hover to see other rain measurements)
** Current wind speed in m/s (hover to see current wind gust speed)